Regional Weather Roundup
Issued by NWS Northern Indiana

Home | Current Version | Previous Version | Graphics & Text | Print | Product List | Glossary On
Versions: 1 2 3 4 5 6 7 8 9 10 11 12 13 14 15 16 17 18 19 20 21 22 23 24 25 26 27 28 29 30 31 32 33 34 35 36 37 38 39 40 41 42 43 44 45 46 47 48 49 50
000
ASUS43 KIWX 251310
RWRIWX

KIWX WEATHER ROUNDUP
NATIONAL WEATHER SERVICE NORTHERN INDIANA
900 AM EDT MON JUL 25 2016

NOTE: "FAIR" INDICATES FEW OR NO CLOUDS BELOW 12,000 FEET WITH NO
SIGNIFICANT WEATHER AND/OR OBSTRUCTIONS TO VISIBILITY.

* THESE STATIONS ARE NOT UNDER NWS QUALITY CONTROL. THEY ALSO MAY NOT
  REPORT WEATHER SUCH AS PRECIPITATION OR FOG.

INZ001>027-251400-
NORTHERN INDIANA

CITY           SKY/WX    TMP DP  RH WIND       PRES   REMARKS
GARY*          PTSUNNY   79 N/A N/A W8        29.97S
VALPARAISO     CLOUDY    76  69  79 NW5       29.98S
MICHIGAN CITY* PTSUNNY   77  70  78 NW7       29.97S
LAPORTE*       CLOUDY    76  74  92 CALM      29.99S
KNOX*          MOSUNNY   70  66  88 S5        29.98R
SOUTH BEND     CLOUDY    75  69  81 NW7       29.97S
ELKHART*       CLOUDY    73  72  94 W5        29.97F
GOSHEN         CLOUDY    73  67  81 W7        29.97F
MONTICELLO*    CLOUDY    72  66  82 SW5       29.98F
LOGANSPORT*    CLOUDY    70  68  94 S3        29.99F
ROCHESTER*     CLOUDY    73  72  94 SW6       30.00S
WARSAW*        MOSUNNY   72  68  88 W5        29.99S
ANGOLA*          N/A     73  66  78 W7        29.98S
FORT WAYNE     PTSUNNY   73  68  84 SW9       30.01R
HUNTINGTON*    PTSUNNY  N/A N/A N/A CALM      30.00S
PERU/GRISSOM   CLOUDY    72  69  92 SW3       29.99F
MARION*        CLOUDY    72  67  84 CALM      30.02F

$$
INZ028>050-251400-
CENTRAL INDIANA

CITY           SKY/WX    TMP DP  RH WIND       PRES   REMARKS
LAFAYETTE      CLOUDY    71  71 100 S5        29.99F
KOKOMO*        CLOUDY    75  64  69 NW5       30.01R
MUNCIE*        CLOUDY    76  68  76 NW6       30.03R
INDIANAPOLIS   PTSUNNY   77  68  73 W5        30.02R

$$
MIZ043>046-050>051-056>058-064>065-071>073-077>080-251400-
SOUTHWEST LOWER MICHIGAN

CITY           SKY/WX    TMP DP  RH WIND       PRES   REMARKS
BATTLE CREEK   CLOUDY    73  70  90 W9        29.97R
BENTON HARBOR  CLOUDY    77  69  76 VRB7      29.96F
COLDWATER*     MOSUNNY   73  70  90 W7        29.97F
HOLLAND        SUNNY     76  67  73 NW9       29.97R
GRAND RAPIDS   PTSUNNY   76  67  73 W12       29.95R
KALAMAZOO      CLOUDY    76  68  76 W7        29.96R
STURGIS*       CLOUDY    71  69  90 CALM      29.96F
THREE RIVERS*  FAIR      74  69  82 SW3       29.97S

$$
OHZ001>008-015>018-024>025-251400-
NORTHWEST OHIO

CITY           SKY/WX    TMP DP  RH WIND       PRES   REMARKS
WAUSEON*       FAIR      73  70  88 W7        29.96S
DEFIANCE       CLOUDY    75  67  76 SW5       29.98R
FINDLAY        CLOUDY    78  67  68 W10       29.98R
TOLEDO EXPRESS CLOUDY    76  70  82 W15       29.96R
TOLEDO METCALF CLOUDY    78  70  76 W12       29.96R
LIMA           SUNNY     77  71  82 W7        30.00S

$$
AND FOR LAKE MICHIGAN COASTAL AND OPEN LAKE BUOY OBSERVATIONS

STATION/POSITION TEMP    WIND        PRES    VSBY  WAVE
                 AIR SEA DIR/SP/G                  HT/PER
                 (F)     (DEG/KT/KT) (MB)    (MI)  (FT/S)
CALUMET HARBOR    75     300/  6/ 10 1014.1R
MICHIGAN CITY     74     250/  7/  8   N/A
BURNS HARBOR      74     260/  5/ 12 1015.2R
SAINT JOSEPH      75     330/  7/  9 1014.6F
SOUTH LAKE BUOY   73 72  310/ 12/ 14 1013.8F         2/ 3
4 MI NW BRIDGMAN  74 74  320/ 10/ 12 1014.1F         3/ 4
MICHIGAN CITY     75 73  320/  8/ 10   N/A           2/ 4

$$
&&



USA.gov is the U.S. government's official web portal to all federal, state and local government web resources and services.